Flag for Germany Weather past 2 weeks in Springe, Lower Saxony, Germany

Now
59 °F

Cool.


Feels Like: 58 °F
Forecast: 54 / 63 °F
Wind: 8 mph from Southwest

Location: Wunstorf Airport

Current Time: Aug 31, 2014 at 1:04:34 AM

Latest Report: Aug 31, 2014 at 12:20 AM


Visibility: N/A

Pressure: 29.95 "Hg

Humidity: 88%

Dew point: 55 °F

Location of SpringeLocation

Historic Weather in Springe — Graph

°F

Springe temperature yesterday

Maximum temperature yesterday: 66 °F (at 12:20 PM)
Minimum temperature yesterday: 57 °F (at 6:20 AM)
Average temperature yesterday: 62 °F

Past Weeks' High & Low Weather Summary

 TemperatureHumidityPressure
High75 °F (Aug 28, 3:20 PM)100% (Aug 25, 6:51 AM)30.04 "Hg (Aug 25, 6:51 AM)
Low45 °F (Aug 25, 5:49 AM)40% (Aug 27, 6:20 PM)29.59 "Hg (Aug 18, 6:20 AM)
Average59 °F74%29.90 "Hg
* Reported Aug 15 11:20 PM — Aug 30 11:20 PM, Springe, Weather by CustomWeather, © 2014

Note: Actual official high and low records may vary slightly from our data, if they occured in-between our weather recording intervals... More about our weather records

Advertising

Springe weather history for previous 24 hours

 ConditionsComfort  
Time TempWeatherWind HumidityBarometerVisibility
11:20 PM
Aug 30
61 °FCool.7 mph94%29.95 "Hg6 mi
10:20 PM61 °FCool.6 mph94%29.95 "Hg6 mi
9:20 PM61 °FCool.10 mph94%29.95 "Hg1 mi
8:20 PM61 °FCool.5 mph94%29.95 "Hg3 mi
7:20 PM63 °FMild.6 mph88%29.95 "Hg2 mi
6:20 PM61 °FCool.8 mph94%29.95 "Hg5 mi
5:20 PM63 °FMild.8 mph88%29.98 "Hg6 mi
4:20 PM63 °FMild.10 mph88%29.98 "Hg3 mi
3:20 PM66 °FMild.8 mph73%29.98 "HgN/A
2:20 PM66 °FMild.14 mph73%29.98 "HgN/A
1:20 PM66 °FMild.13 mph68%29.98 "HgN/A
12:20 PM66 °FMild.13 mph68%29.98 "HgN/A
11:20 AM64 °FMild.12 mph73%29.98 "HgN/A
10:20 AM63 °FMild.10 mph77%29.98 "HgN/A
9:20 AM61 °FCool.12 mph83%29.98 "HgN/A
8:20 AM61 °FCool.6 mph83%29.98 "HgN/A
7:20 AM57 °FCool.7 mph88%29.98 "HgN/A
6:20 AM57 °FCool.8 mph88%29.98 "HgN/A
5:20 AM59 °FCool.8 mph82%29.98 "HgN/A
4:20 AM59 °FCool.7 mph82%29.98 "HgN/A
3:20 AM61 °FCool.8 mph83%29.98 "HgN/A
2:20 AM59 °FCool.8 mph88%29.98 "HgN/A
1:20 AM59 °FCool.2 mph88%30.01 "HgN/A
Weather by CustomWeather, © 2014

See weather overviewHow to use our weather pages